Location: Wapato
(46.4478°N, 120.4212°W)
Time: 10:06:51
(UTC+00:00)

Injun/Solrad 3 - Pass Details

Date: 10 May 2026
Orbit: 867 x 989 km, 66.8° (Epoch: 10 June)

Event Time Altitude Azimuth Distance (km) Brightness Sun altitude
Rises 11:38:43 0° 308° (NW) 3,693 10.9 -8.9°
Reaches altitude 10° 11:44:12 10° 270° (W) 2,748 9.9 -8.1°
Maximum altitude 11:45:06 10° 262° (W) 2,725 9.8 -8.0°
Drops below altitude 10° 11:46:01 10° 253° (WSW) 2,747 9.8 -7.9°
Enters shadow 11:47:14 - 243° (WSW) 2,846 9.8 -7.7°
Sets 11:51:31 0° 215° (SW) 3,682 - -7.1°
